IQ1GE Weather Reports


Display with metric or nautical units.
time (UTC)temp
F
wind
direction
speed
MPH
gust
MPH
rain 1hr
in
rain 24hr
in
rain mn
in
humidity
%
barometer
mb
20260901005932 77 41 0.0 0.0 0.00 0.00 0.00 79 1017.5
20260901005426 77 68 0.0 0.0 0.00 0.00 0.00 79 1017.5
20260901004926 77 48 0.0 0.0 0.00 0.00 0.00 79 1017.5
20260901004426 77 68 0.0 0.0 0.00 0.00 0.00 79 1017.6
20260901003929 77 66 0.0 0.0 0.00 0.00 0.00 79 1017.6
20260901003432 77 79 0.0 0.0 0.00 0.00 0.00 79 1017.6
20260901002926 77 95 0.0 0.0 0.00 0.00 0.00 79 1017.6
20260901002426 77 95 0.0 0.0 0.00 0.00 0.00 79 1017.7
20260901001929 77 95 0.0 0.0 0.00 0.00 0.00 79 1017.7
20260901001426 78 94 0.0 0.0 0.00 0.00 0.00 79 1017.7
20260901000932 78 86 0.0 0.0 0.00 0.00 0.00 79 1017.7
20260901000428 78 90 0.0 0.0 0.00 0.00 0.00 79 1017.7
20260831235926 78 101 0.0 0.0 0.00 0.00 0.00 79 1017.7
20260831235429 78 100 0.0 0.0 0.00 0.00 0.00 79 1017.7
20260831234926 78 98 0.0 0.0 0.00 0.00 0.00 79 1017.7
20260831234426 78 100 0.0 0.0 0.00 0.00 0.00 79 1017.8
20260831233926 78 100 0.0 0.0 0.00 0.00 0.00 80 1017.8
20260831233426 78 104 0.0 0.0 0.00 0.00 0.00 80 1017.8
20260831232932 78 102 0.0 0.0 0.00 0.00 0.00 80 1017.8
20260831232426 78 105 0.0 0.0 0.00 0.00 0.00 80 1017.8
20260831231926 78 104 0.0 0.0 0.00 0.00 0.00 80 1017.7
20260831231426 78 127 0.0 0.0 0.00 0.00 0.00 81 1017.7
20260831230926 78 127 0.0 0.0 0.00 0.00 0.00 81 1017.7
20260831230426 78 83 0.0 0.0 0.00 0.00 0.00 82 1017.7
20260831225929 78 77 0.0 0.0 0.00 0.00 0.00 82 1017.7
20260831225432 78 79 0.0 0.0 0.00 0.00 0.00 82 1017.7
20260831224926 78 120 0.0 0.0 0.00 0.00 0.00 82 1017.7
20260831224426 78 60 0.0 0.0 0.00 0.00 0.00 81 1017.7
20260831223926 78 112 0.0 0.0 0.00 0.00 0.00 81 1017.7
20260831223429 78 79 0.0 0.0 0.00 0.00 0.00 80 1017.7
20260831222926 78 87 0.0 0.0 0.00 0.00 0.00 80 1017.6
20260831222429 78 68 0.0 0.0 0.00 0.00 0.00 80 1017.7
20260831221926 78 70 0.0 0.0 0.00 0.00 0.00 80 1017.7
20260831221429 79 110 0.0 0.0 0.00 0.00 0.00 80 1017.6
20260831220926 79 68 0.0 0.0 0.00 0.00 0.00 80 1017.6
20260831220429 79 103 0.0 0.0 0.00 0.00 0.00 80 1017.5
20260831215926 79 99 0.0 0.0 0.00 0.00 0.00 80 1017.5
20260831215426 79 106 0.0 0.0 0.00 0.00 0.00 80 1017.5
20260831214929 79 113 0.0 0.0 0.00 0.00 0.00 80 1017.5
20260831214426 79 119 0.0 0.0 0.00 0.00 0.00 80 1017.5
20260831213929 79 125 0.0 0.0 0.00 0.00 0.00 80 1017.5
20260831213426 79 125 0.0 0.0 0.00 0.00 0.00 80 1017.4
20260831212932 79 125 0.0 0.0 0.00 0.00 0.00 80 1017.4
20260831212429 79 128 0.0 0.0 0.00 0.00 0.00 80 1017.4
20260831211926 79 228 0.0 0.0 0.00 0.00 0.00 80 1017.4
20260831211426 79 125 0.0 0.0 0.00 0.00 0.00 80 1017.4
20260831210926 79 125 0.0 0.0 0.00 0.00 0.00 80 1017.4
20260831210426 79 124 0.0 0.0 0.00 0.00 0.00 80 1017.3
20260831205929 80 125 0.0 0.0 0.00 0.00 0.00 79 1017.3
20260831205432 80 312 0.0 0.0 0.00 0.00 0.00 79 1017.3
20260831204926 80 336 0.0 0.0 0.00 0.00 0.00 79 1017.3
20260831204426 80 337 0.0 0.0 0.00 0.00 0.00 79 1017.2
20260831203926 80 242 0.0 0.0 0.00 0.00 0.00 79 1017.2
20260831203426 80 242 0.0 0.0 0.00 0.00 0.00 79 1017.1
20260831202926 80 243 0.0 0.0 0.00 0.00 0.00 79 1017.1
20260831202429 80 241 0.0 0.0 0.00 0.00 0.00 79 1017.1
20260831201926 80 232 0.0 0.0 0.00 0.00 0.00 79 1017.0
20260831201432 80 232 0.0 0.0 0.00 0.00 0.00 79 1017.0
20260831200926 80 224 0.0 0.0 0.00 0.00 0.00 79 1016.9
20260831200426 80 193 0.0 0.0 0.00 0.00 0.00 79 1016.9
20260831195929 80 59 0.0 0.0 0.00 0.00 0.00 79 1016.9
20260831195429 80 191 0.0 0.0 0.00 0.00 0.00 79 1016.9
20260831194926 80 223 0.0 0.0 0.00 0.00 0.00 79 1016.9
20260831194432 80 173 0.0 0.0 0.00 0.00 0.00 80 1016.9
20260831193929 80 162 0.0 0.0 0.00 0.00 0.00 80 1016.9
20260831193426 80 197 0.0 0.0 0.00 0.00 0.00 80 1016.9
20260831192926 80 208 0.0 0.0 0.00 0.00 0.00 80 1016.9
20260831192429 80 345 0.0 0.0 0.00 0.00 0.00 79 1016.7
20260831191926 80 204 0.0 0.0 0.00 0.00 0.00 79 1016.8
20260831191426 80 278 0.0 0.0 0.00 0.00 0.00 79 1016.7
20260831190926 80 320 0.0 0.0 0.00 0.00 0.00 79 1016.6
20260831190429 80 227 0.0 0.0 0.00 0.00 0.00 79 1016.6
20260831185932 80 226 0.0 0.0 0.00 0.00 0.00 79 1016.6
20260831185426 80 208 0.0 0.0 0.00 0.00 0.00 79 1016.6
20260831184926 80 301 0.0 0.0 0.00 0.00 0.00 79 1016.5
20260831184429 80 189 0.0 0.0 0.00 0.00 0.00 79 1016.5
20260831183926 80 204 0.0 0.0 0.00 0.00 0.00 79 1016.5
20260831183426 80 183 0.0 0.0 0.00 0.00 0.00 79 1016.4
20260831182929 80 148 0.0 0.0 0.00 0.00 0.00 79 1016.3
20260831182426 80 193 0.0 0.0 0.00 0.00 0.00 78 1016.2
20260831181932 80 220 0.0 0.0 0.00 0.00 0.00 78 1016.2
20260831181427 81 212 0.0 0.0 0.00 0.00 0.00 77 1016.1
20260831180926 81 212 0.0 0.0 0.00 0.00 0.00 77 1016.1
20260831180427 81 93 0.0 0.0 0.00 0.00 0.00 77 1016.1
20260831175927 81 286 0.0 0.0 0.00 0.00 0.00 76 1016.2
20260831175429 81 270 0.0 0.0 0.00 0.00 0.00 76 1016.2
20260831174926 81 208 0.0 0.0 0.00 0.00 0.00 75 1016.3
20260831174429 82 243 0.0 0.0 0.00 0.00 0.00 75 1016.3
20260831173927 82 190 0.0 0.0 0.00 0.00 0.00 74 1016.3
20260831173426 82 208 0.0 0.0 0.00 0.00 0.00 74 1016.3
20260831172930 82 175 0.0 0.0 0.00 0.00 0.00 73 1016.3
20260831172426 82 240 0.0 0.0 0.00 0.00 0.00 73 1016.4
20260831171933 82 155 0.0 0.0 0.00 0.00 0.00 72 1016.3
20260831171427 83 239 0.0 0.0 0.00 0.00 0.00 72 1016.3
20260831170927 83 229 0.0 0.0 0.00 0.00 0.00 71 1016.4
20260831170430 83 208 0.0 0.0 0.00 0.00 0.00 71 1016.5
20260831165930 83 135 0.0 0.0 0.00 0.00 0.00 72 1016.5
20260831165433 83 246 0.0 0.0 0.00 0.00 0.00 72 1016.5
20260831164936 83 226 0.0 0.0 0.00 0.00 0.00 72 1016.5
20260831164427 83 243 0.0 0.0 0.00 0.00 0.00 72 1016.5
20260831163930 83 170 0.0 0.0 0.00 0.00 0.00 73 1016.5
20260831163430 83 263 0.0 0.0 0.00 0.00 0.00 73 1016.6
20260831162927 83 216 0.0 0.0 0.00 0.00 0.00 73 1016.5
20260831162430 83 202 0.0 0.0 0.00 0.00 0.00 73 1016.5
20260831161927 83 218 0.0 0.0 0.00 0.00 0.00 73 1016.5
20260831161430 83 206 0.0 0.0 0.00 0.00 0.00 73 1016.5
20260831160927 83 231 0.0 0.0 0.00 0.00 0.00 73 1016.6
20260831160427 84 174 0.0 0.0 0.00 0.00 0.00 72 1016.6
20260831155930 84 176 0.0 0.0 0.00 0.00 0.00 71 1016.6
20260831155427 84 233 0.0 0.0 0.00 0.00 0.00 72 1016.6
20260831154927 84 204 0.0 0.0 0.00 0.00 0.00 72 1016.6
20260831154427 84 214 0.0 0.0 0.00 0.00 0.00 73 1016.6
20260831153927 84 239 0.0 0.0 0.00 0.00 0.00 73 1016.7
20260831153430 83 337 0.0 0.0 0.00 0.00 0.00 74 1016.7
20260831152927 83 180 0.0 0.0 0.00 0.00 0.00 73 1016.8
20260831152427 83 220 0.0 0.0 0.00 0.00 0.00 73 1016.8
20260831151927 84 143 0.0 0.0 0.00 0.00 0.00 72 1016.8
20260831151430 84 201 0.0 0.0 0.00 0.00 0.00 72 1016.8
20260831150927 84 221 0.0 0.0 0.00 0.00 0.00 72 1016.9
20260831150430 84 199 0.0 0.0 0.00 0.00 0.00 71 1016.9
20260831145930 84 224 0.0 0.0 0.00 0.00 0.00 71 1016.9
20260831145430 83 239 0.0 0.0 0.00 0.00 0.00 71 1016.9
20260831144927 83 232 0.0 0.0 0.00 0.00 0.00 73 1016.9
20260831144427 83 171 0.0 0.0 0.00 0.00 0.00 72 1016.9
20260831143927 83 258 0.0 0.0 0.00 0.00 0.00 72 1016.9
20260831143427 83 235 0.0 0.0 0.00 0.00 0.00 71 1016.9
20260831142927 84 191 0.0 0.0 0.00 0.00 0.00 72 1016.9
20260831142430 83 298 0.0 0.0 0.00 0.00 0.00 70 1016.9
20260831141927 83 170 0.0 0.0 0.00 0.00 0.00 70 1016.9
20260831141430 83 204 0.0 0.0 0.00 0.00 0.00 72 1016.9
20260831140927 83 217 0.0 0.0 0.00 0.00 0.00 72 1016.9
20260831140430 83 222 0.0 0.0 0.00 0.00 0.00 71 1017.0
20260831135927 83 183 0.0 0.0 0.00 0.00 0.00 71 1017.0
20260831135436 83 220 0.0 0.0 0.00 0.00 0.00 71 1017.1
20260831134927 82 262 0.0 0.0 0.00 0.00 0.00 71 1017.0
20260831134427 83 230 0.0 0.0 0.00 0.00 0.00 71 1017.0
20260831133927 83 212 0.0 0.0 0.00 0.00 0.00 71 1017.1
20260831133430 82 188 0.0 0.0 0.00 0.00 0.00 71 1017.1
20260831132927 82 222 0.0 0.0 0.00 0.00 0.00 70 1017.1
20260831132430 82 231 0.0 0.0 0.00 0.00 0.00 70 1017.1
20260831131927 82 253 0.0 0.0 0.00 0.00 0.00 72 1017.2
20260831131427 82 220 0.0 0.0 0.00 0.00 0.00 71 1017.1
20260831130927 82 239 0.0 0.0 0.00 0.00 0.00 71 1017.1
20260831130430 82 235 0.0 0.0 0.00 0.00 0.00 72 1017.2
20260831125927 82 213 0.0 0.0 0.00 0.00 0.00 73 1017.2
20260831125430 82 172 0.0 0.0 0.00 0.00 0.00 74 1017.2
20260831124933 82 222 0.0 0.0 0.00 0.00 0.00 73 1017.2
20260831124430 82 166 0.0 0.0 0.00 0.00 0.00 73 1017.2
20260831123930 83 236 0.0 0.0 0.00 0.00 0.00 72 1017.2
20260831123430 83 235 0.0 0.0 0.00 0.00 0.00 72 1017.1
20260831122930 83 191 0.0 0.0 0.00 0.00 0.00 73 1017.1
20260831122427 83 202 0.0 0.0 0.00 0.00 0.00 73 1017.1
20260831121930 82 233 0.0 0.0 0.00 0.00 0.00 73 1017.1
20260831121427 83 310 0.0 0.0 0.00 0.00 0.00 72 1017.2
20260831120930 83 195 0.0 0.0 0.00 0.00 0.00 72 1017.2
20260831120427 83 214 0.0 0.0 0.00 0.00 0.00 72 1017.3
20260831115927 83 259 0.0 0.0 0.00 0.00 0.00 73 1017.3
20260831115430 83 249 0.0 0.0 0.00 0.00 0.00 73 1017.3
20260831114936 83 216 0.0 0.0 0.00 0.00 0.00 73 1017.4
20260831114433 82 223 0.0 0.0 0.00 0.00 0.00 74 1017.3
20260831113927 82 168 0.0 0.0 0.00 0.00 0.00 73 1017.3
20260831113427 82 198 0.0 0.0 0.00 0.00 0.00 73 1017.4
20260831112930 82 163 0.0 0.0 0.00 0.00 0.00 73 1017.4
20260831112427 83 170 0.0 0.0 0.00 0.00 0.00 74 1017.4
20260831111930 83 189 0.0 0.0 0.00 0.00 0.00 73 1017.5
20260831111430 83 240 0.0 0.0 0.00 0.00 0.00 72 1017.5
20260831110930 83 208 0.0 0.0 0.00 0.00 0.00 71 1017.4
20260831110427 83 194 0.0 0.0 0.00 0.00 0.00 69 1017.5
20260831105930 83 166 0.0 0.0 0.00 0.00 0.00 68 1017.6
20260831105430 83 226 0.0 0.0 0.00 0.00 0.00 66 1017.7
20260831104930 83 211 0.0 0.0 0.00 0.00 0.00 66 1017.7
20260831104433 83 206 0.0 0.0 0.00 0.00 0.00 66 1017.7
20260831103927 83 154 0.0 0.0 0.00 0.00 0.00 67 1017.7
20260831103427 83 240 0.0 0.0 0.00 0.00 0.00 67 1017.7
20260831102933 83 205 0.0 0.0 0.00 0.00 0.00 66 1017.7
20260831102427 83 183 0.0 0.0 0.00 0.00 0.00 66 1017.6
20260831101927 84 195 0.0 0.0 0.00 0.00 0.00 67 1017.5
20260831101430 83 220 0.0 0.0 0.00 0.00 0.00 68 1017.5
20260831100927 83 235 0.0 0.0 0.00 0.00 0.00 68 1017.5
20260831100430 82 175 0.0 0.0 0.00 0.00 0.00 68 1017.5
20260831095933 82 233 0.0 0.0 0.00 0.00 0.00 69 1017.5
20260831095427 82 218 0.0 0.0 0.00 0.00 0.00 69 1017.6
20260831094927 82 210 0.0 0.0 0.00 0.00 0.00 68 1017.5
20260831094427 83 247 0.0 0.0 0.00 0.00 0.00 68 1017.6
20260831093936 83 238 0.0 0.0 0.00 0.00 0.00 69 1017.6
20260831093427 82 243 0.0 0.0 0.00 0.00 0.00 69 1017.6
20260831092927 82 253 0.0 0.0 0.00 0.00 0.00 69 1017.6
20260831092427 82 162 0.0 0.0 0.00 0.00 0.00 68 1017.5
20260831091927 83 183 0.0 0.0 0.00 0.00 0.00 68 1017.5
20260831091433 82 217 0.0 0.0 0.00 0.00 0.00 69 1017.5
20260831090927 82 195 0.0 0.0 0.00 0.00 0.00 69 1017.5
20260831090430 82 229 0.0 0.0 0.00 0.00 0.00 69 1017.5
20260831085933 82 231 0.0 0.0 0.00 0.00 0.00 68 1017.5
20260831085436 83 202 0.0 0.0 0.00 0.00 0.00 67 1017.5
20260831084927 83 199 0.0 0.0 0.00 0.00 0.00 66 1017.5
20260831084427 83 187 0.0 0.0 0.00 0.00 0.00 65 1017.6
20260831083930 83 132 0.0 0.0 0.00 0.00 0.00 65 1017.6
20260831083433 82 212 0.0 0.0 0.00 0.00 0.00 65 1017.6
20260831082927 82 212 0.0 0.0 0.00 0.00 0.00 66 1017.6
20260831082427 82 212 0.0 0.0 0.00 0.00 0.00 67 1017.5
20260831081930 82 213 0.0 0.0 0.00 0.00 0.00 68 1017.5
20260831081427 81 198 0.0 0.0 0.00 0.00 0.00 68 1017.5
20260831080927 81 199 0.0 0.0 0.00 0.00 0.00 69 1017.4
20260831080427 81 185 0.0 0.0 0.00 0.00 0.00 69 1017.4
20260831075930 81 122 0.0 0.0 0.00 0.00 0.00 70 1017.5
20260831075433 81 93 0.0 0.0 0.00 0.00 0.00 71 1017.4
20260831074927 80 68 0.0 0.0 0.00 0.00 0.00 72 1017.3
20260831074430 79 68 0.0 0.0 0.00 0.00 0.00 73 1017.3
20260831073927 79 35 0.0 0.0 0.00 0.00 0.00 74 1017.2
20260831073433 78 35 0.0 0.0 0.00 0.00 0.00 73 1017.2
20260831072936 78 35 0.0 0.0 0.00 0.00 0.00 74 1017.1
20260831072427 78 36 0.0 0.0 0.00 0.00 0.00 74 1017.1
20260831071927 78 36 0.0 0.0 0.00 0.00 0.00 74 1017.1
20260831071433 77 36 0.0 0.0 0.00 0.00 0.00 74 1017.1
20260831070930 77 35 0.0 0.0 0.00 0.00 0.00 74 1017.1
20260831070427 77 38 0.0 0.0 0.00 0.00 0.00 73 1017.0
20260831065927 77 83 0.0 0.0 0.00 0.00 0.00 73 1017.0
20260831065433 77 359 0.0 0.0 0.00 0.00 0.00 74 1016.8
20260831064930 77 64 0.0 0.0 0.00 0.00 0.00 73 1016.8
20260831064430 76 77 0.0 0.0 0.00 0.00 0.00 73 1016.9
20260831063933 76 89 0.0 0.0 0.00 0.00 0.00 72 1016.9
20260831063427 76 83 0.0 0.0 0.00 0.00 0.00 72 1016.8
20260831062927 76 76 0.0 0.0 0.00 0.00 0.00 72 1016.9
20260831062430 76 123 0.0 0.0 0.00 0.00 0.00 73 1016.9
20260831061934 76 102 0.0 0.0 0.00 0.00 0.00 73 1016.9
20260831061431 75 83 0.0 0.0 0.00 0.00 0.00 73 1016.8
20260831060927 75 115 0.0 0.0 0.00 0.00 0.00 74 1016.8
20260831060428 75 112 0.0 0.0 0.00 0.00 0.00 75 1016.9
20260831055930 75 93 0.0 0.0 0.00 0.00 0.00 76 1016.9
20260831055427 75 122 0.0 0.0 0.00 0.00 0.00 76 1016.7
20260831054927 75 80 0.0 0.0 0.00 0.00 0.00 75 1016.7
20260831054427 75 52 0.0 0.0 0.00 0.00 0.00 76 1016.7
20260831053930 75 87 0.0 0.0 0.00 0.00 0.00 76 1016.7
20260831053434 75 83 0.0 0.0 0.00 0.00 0.00 77 1016.8
20260831052927 74 43 0.0 0.0 0.00 0.00 0.00 77 1016.7
20260831052430 74 105 0.0 0.0 0.00 0.00 0.00 76 1016.6
20260831051934 75 111 0.0 0.0 0.00 0.00 0.00 77 1016.6
20260831051428 76 359 0.0 0.0 0.00 0.00 0.00 77 1016.6
20260831050928 76 114 0.0 0.0 0.00 0.00 0.00 78 1016.6
20260831050428 75 82 0.0 0.0 0.00 0.00 0.00 78 1016.6
20260831045931 75 90 0.0 0.0 0.00 0.00 0.00 78 1016.6
20260831045431 75 95 0.0 0.0 0.00 0.00 0.00 79 1016.6
20260831044928 75 93 0.0 0.0 0.00 0.00 0.00 79 1016.6
20260831044434 75 108 0.0 0.0 0.00 0.00 0.00 79 1016.5
20260831043928 74 127 0.0 0.0 0.00 0.00 0.00 78 1016.4
20260831043428 74 70 0.0 0.0 0.00 0.00 0.00 78 1016.5
20260831042928 74 83 0.0 0.0 0.00 0.00 0.00 78 1016.5
20260831042431 74 84 0.0 0.0 0.00 0.00 0.00 78 1016.5
20260831041934 74 118 0.0 0.0 0.00 0.00 0.00 79 1016.5
20260831041428 74 105 0.0 0.0 0.00 0.00 0.00 79 1016.4
20260831040428 75 77 0.0 0.0 0.00 0.00 0.00 80 1016.3
20260831035928 75 75 0.0 0.0 0.00 0.00 0.00 80 1016.3
20260831035431 75 69 0.0 0.0 0.00 0.00 0.00 79 1016.3
20260831034928 75 104 0.0 0.0 0.00 0.00 0.00 79 1016.4
20260831034431 75 114 0.0 0.0 0.00 0.00 0.00 79 1016.3
20260831033928 75 52 0.0 0.0 0.00 0.00 0.00 79 1016.4
20260831033428 75 64 0.0 0.0 0.00 0.00 0.00 79 1016.4
20260831032928 75 39 0.0 0.0 0.00 0.00 0.00 79 1016.5
20260831032437 75 89 0.0 0.0 0.00 0.00 0.00 78 1016.6
20260831031928 75 41 0.0 0.0 0.00 0.00 0.00 78 1016.6
20260831031428 75 83 0.0 0.0 0.00 0.00 0.00 78 1016.6
20260831030931 75 99 0.0 0.0 0.00 0.00 0.00 78 1016.6
20260831030428 74 107 0.0 0.0 0.00 0.00 0.00 78 1016.6
20260831025931 75 84 0.0 0.0 0.00 0.00 0.00 78 1016.6
20260831025434 75 110 0.0 0.0 0.00 0.00 0.00 79 1016.6
20260831024937 75 88 0.0 0.0 0.00 0.00 0.00 79 1016.6
20260831024428 75 104 0.0 0.0 0.00 0.00 0.00 79 1016.6
20260831023928 75 101 0.0 0.0 0.00 0.00 0.00 78 1016.7
20260831023428 75 100 0.0 0.0 0.00 0.00 0.00 77 1016.7
20260831022928 75 51 0.0 0.0 0.00 0.00 0.00 77 1016.6
20260831022428 75 119 0.0 0.0 0.00 0.00 0.00 77 1016.7
20260831021931 75 106 0.0 0.0 0.00 0.00 0.00 77 1016.7
20260831021428 75 33 0.0 0.0 0.00 0.00 0.00 76 1016.7
20260831020931 75 98 0.0 0.0 0.00 0.00 0.00 76 1016.7
20260831020425 75 108 0.0 0.0 0.00 0.00 0.00 76 1016.7
20260831015928 75 87 0.0 0.0 0.00 0.00 0.00 76 1016.8
20260831015431 75 88 0.0 0.0 0.00 0.00 0.00 77 1016.9
20260831014931 75 87 0.0 0.0 0.00 0.00 0.00 77 1017.0
20260831014431 75 100 0.0 0.0 0.00 0.00 0.00 78 1017.0
20260831013931 75 91 0.0 0.0 0.00 0.00 0.00 78 1017.0
20260831013425 75 64 0.0 0.0 0.00 0.00 0.00 78 1017.1
20260831012925 75 87 0.0 0.0 0.00 0.00 0.00 77 1017.0
20260831012434 75 60 0.0 0.0 0.00 0.00 0.00 77 1017.0
20260831011925 76 106 0.0 0.0 0.00 0.00 0.00 78 1017.0
20260831011425 76 106 0.0 0.0 0.00 0.00 0.00 78 1016.9
20260831010928 76 103 0.0 0.0 0.00 0.00 0.00 78 1017.0
20260831010425 76 68 0.0 0.0 0.00 0.00 0.00 78 1017.0